305P/Skiff (2024)

Japanese version
Home page
Updated on September 27, 2024

---------------------------------------------------------------------

* Profile

* Pictures

* Orbital Elements

Epoch 2024 Nov. 26.0 TT = JDT 2460640.5
T 2024 Nov. 17.13433 TT                                 MPCW
q   1.4186005            (2000.0)            P               Q
n   0.09873291     Peri.  147.42651     +0.87709585     -0.44715099
a   4.6361922      Node   240.10630     +0.38587888     +0.87341822
e   0.6940160      Incl.   11.67134     +0.28600764     +0.19286423
P   9.98
From 509 observations 2004 Oct. 7-2015 Mar. 9, mean residual 0".8.
     Nongravitational parameters A1 = +0.06, A2 = -0.0171.

* Finding Charts

* Magnitudes Graph

        m1 = 13.5 + 5 log d + 17.0 log r(t - 65)

---------------------------------------------------------------------

The orbital elements are published on M.P.E.C. 2016-Q04.
The charts are made with StellaNavigator Ver.11 (AstroArts).
The magnitudes graphs are made with Comet for Windows.

---------------------------------------------------------------------

Copyright(C) Seiichi Yoshida (comet@aerith.net). All rights reserved.